Weather History for North Adams, MA

Change the Weather History Date:

Monday, March 4, 2013

  Actual Average Record
Temperature  
Mean Temperature 27 °F -  
Max Temperature 30 °F 35 °F 54 °F (1999)
Min Temperature 24 °F 18 °F -4 °F (2014)
Degree Days  
Heating Degree Days 38    
Moisture  
Dew Point 16 °F    
Average Humidity 63    
Maximum Humidity 69    
Minimum Humidity 55    
Precipitation  
Precipitation 0.00 in - - ()
Sea Level Pressure  
Sea Level Pressure 29.77 in    
Wind  
Wind Speed 12 mph (West)    
Max Wind Speed 17 mph    
Max Gust Speed 28 mph    
Visibility 10 miles    
Events      
Averages and records for this station are not official NWS values.
T = Trace of Precipitation, MM = Missing Value Source: NWS Daily Summary

Daily Weather History Graph

Daily Weather History Graph

Search for Another Location

Airport:

Trip Planner

Search our weather history database for the weather conditions in past years. The results will help you decide how hot, cold, wet, or windy it might be!

Date:

Astronomy

Mar. 04, 2013 Rise Set
Actual Time 6:23 AM EST 5:46 PM EST
Civil Twilight 5:54 AM EST 6:14 PM EST
Nautical Twilight 5:22 AM EST 6:47 PM EST
Astronomical Twilight 4:49 AM EST 7:20 PM EST
Moon 12:35 AM EST (3/4) 10:19 AM EST (3/4)
Length of Visible Light 12h 19m
Length of Day
11h 23m
Waning Gibbous, 52% of the Moon is Illuminated
Mar 4
Waning Gibbous
Mar 4
Last Quarter
Mar 11
New
Mar 19
First Quarter
Mar 27
Full

Hourly Weather History & Observations

Time (EST) Temp. Windchill Dew Point Humidity Pressure Visibility Wind Dir Wind Speed Gust Speed Precip Events Conditions
12:52 AM 24.1 °F 15.2 °F 14.0 °F 65% 29.73 in 10.0 mi West 8.1 mph - N/A   Overcast
1:52 AM 24.1 °F 13.7 °F 14.0 °F 65% 29.74 in 10.0 mi West 10.4 mph - N/A   Overcast
2:52 AM 24.1 °F 13.7 °F 14.0 °F 65% 29.73 in 10.0 mi West 10.4 mph - N/A   Overcast
4:52 AM 24.1 °F 12.5 °F 14.0 °F 65% 29.74 in 10.0 mi West 12.7 mph - N/A   Overcast
5:52 AM 24.1 °F 12.5 °F 15.1 °F 69% 29.75 in 10.0 mi West 12.7 mph - N/A   Overcast
6:52 AM 25.0 °F 11.7 °F 15.1 °F 66% 29.75 in 10.0 mi West 17.3 mph 24.2 mph N/A   Overcast
7:52 AM 25.0 °F 13.1 °F 16.0 °F 69% 29.76 in 10.0 mi West 13.8 mph - N/A   Overcast
8:52 AM 26.1 °F 14.0 °F 16.0 °F 66% 29.75 in 10.0 mi West 15.0 mph 24.2 mph N/A   Overcast
9:52 AM 27.0 °F 15.2 °F 16.0 °F 63% 29.75 in 10.0 mi West 15.0 mph 21.9 mph N/A   Overcast
10:52 AM 28.0 °F 18.1 °F 16.0 °F 61% 29.75 in 10.0 mi West 11.5 mph 21.9 mph N/A   Overcast
11:52 AM 28.9 °F 17.7 °F 16.0 °F 58% 29.75 in 10.0 mi West 15.0 mph - N/A   Overcast
12:52 PM 28.9 °F 17.3 °F 15.1 °F 56% 29.74 in 10.0 mi West 16.1 mph 21.9 mph N/A   Overcast
1:43 PM 30.2 °F 19.3 °F 15.8 °F 55% 29.70 in 10.0 mi West 15.0 mph 24.2 mph N/A   Overcast
1:52 PM 30.0 °F 18.7 °F 16.0 °F 56% 29.73 in 10.0 mi West 16.1 mph 27.6 mph N/A   Overcast
3:36 PM 28.4 °F 17.5 °F 15.8 °F 59% 29.73 in 10.0 mi West 13.8 mph 24.2 mph N/A   Overcast
3:52 PM 28.9 °F 17.3 °F 16.0 °F 58% 29.76 in 10.0 mi West 16.1 mph 21.9 mph N/A   Overcast
4:38 PM 28.4 °F 17.5 °F 15.8 °F 59% 29.74 in 10.0 mi West 13.8 mph 21.9 mph N/A   Overcast
4:52 PM 28.9 °F 18.6 °F 15.1 °F 56% 29.77 in 10.0 mi West 12.7 mph 19.6 mph N/A   Overcast
5:52 PM 28.0 °F 17.5 °F 16.0 °F 61% 29.79 in 10.0 mi West 12.7 mph 19.6 mph N/A   Overcast
6:52 PM 28.0 °F 16.5 °F 16.0 °F 61% 29.82 in 10.0 mi West 15.0 mph 21.9 mph N/A   Overcast
7:52 PM 27.0 °F 18.7 °F 17.1 °F 66% 29.85 in 10.0 mi West 8.1 mph 20.7 mph N/A   Overcast
8:52 PM 27.0 °F 17.3 °F 18.0 °F 69% 29.87 in 10.0 mi West 10.4 mph 20.7 mph 0.00 in   Overcast
9:52 PM 27.0 °F 16.7 °F 18.0 °F 69% 29.88 in 9.0 mi West 11.5 mph 17.3 mph 0.00 in   Overcast
10:52 PM 26.1 °F 16.8 °F 17.1 °F 69% 29.89 in 10.0 mi West 9.2 mph - N/A   Overcast
11:52 PM 26.1 °F 16.2 °F 17.1 °F 69% 29.89 in 10.0 mi West 10.4 mph - N/A   Overcast